BEIDOU I1-S

Last updated on April 2, 2019, 3:15 a.m. UTC

1 40549U 15019A   19091.62063209 -.00000156  00000-0  00000+0 0  9998
2 40549  53.6647 326.2928 0037268 188.0802 355.1595  1.00269507 14671
UTC
Height (km)
Latitude
Longitude
Inclination
Orbital Period
UTC large
Height (km)
Speed (km/s)
/
Latitude / Longitude
Inclination (degrees)
Orbital Period (minutes)
Azimuth
Elevation
Range (km)
Doppler Factor
iOS Compass Heading
iOS Angle

Next 30 passes for location: Hong Kong

Rise time Rise Azimuth (degrees) Set time Set Azimuth (degrees) Duration Max altitude (degrees)

No matching passes for this satellites